EW9327 Weather Reports


time (UTC)temp
C
wind
direction
speed
KPH
gust
KPH
rain 1hr
cm
rain 24hr
cm
rain mn
cm
humidity
%
barometer
mb
20210920051622 15 246 0.0 0.0 0.00 0.00 0.00 88 1000.4
20210920051122 15 247 0.0 0.0 0.00 0.00 0.00 88 1000.3
20210920050624 15 248 0.0 0.0 0.00 0.00 0.00 88 1000.2
20210920050124 15 247 0.0 0.0 0.00 0.00 0.00 88 1000.2
20210920045625 15 247 0.0 0.0 0.00 0.00 0.00 88 1000.2
20210920045124 15 248 0.0 0.0 0.00 0.00 0.00 88 1000.2
20210920044625 15 248 0.0 0.0 0.00 0.00 0.00 88 1000.3
20210920044122 15 247 0.0 0.0 0.00 0.00 0.00 87 1000.2
20210920043623 16 247 0.0 0.0 0.00 0.00 0.00 88 1000.3
20210920043122 16 0 0.0 0.0 0.00 0.00 0.00 88 1000.3
20210920042623 16 246 0.0 0.0 0.00 0.00 0.00 87 1000.2
20210920042122 16 247 0.0 0.0 0.00 0.00 0.00 87 1000.3
20210920041623 16 247 0.0 0.0 0.00 0.00 0.00 87 1000.3
20210920041123 16 0 0.0 0.0 0.00 0.00 0.00 87 1000.3
20210920040622 16 0 0.0 0.0 0.00 0.00 0.00 87 1000.3
20210920040122 16 0 0.0 0.0 0.00 0.00 0.00 87 1000.3
20210920035622 16 246 0.0 0.0 0.00 0.00 0.00 87 1000.2
20210920035122 16 246 0.0 0.0 0.00 0.00 0.00 87 1000.2
20210920034622 16 247 0.0 0.0 0.00 0.00 0.00 86 1000.2
20210920034123 17 0 0.0 0.0 0.00 0.00 0.00 86 1000.2
20210920033622 17 247 0.0 0.0 0.00 0.00 0.00 86 1000.2
20210920033121 17 0 0.0 0.0 0.00 0.00 0.00 86 1000.2
20210920032622 17 247 0.0 0.0 0.00 0.00 0.00 86 1000.2
20210920032122 17 0 0.0 0.0 0.00 0.00 0.00 86 1000.1
20210920031622 17 0 0.0 0.0 0.00 0.00 0.00 85 1000.1
20210920031123 17 0 0.0 0.0 0.00 0.00 0.00 85 1000.1
20210920030622 17 0 0.0 0.0 0.00 0.00 0.00 85 1000.1
20210920030121 17 0 0.0 0.0 0.00 0.00 0.00 85 1000.1
20210920025623 17 0 0.0 0.0 0.00 0.00 0.00 85 1000.0
20210920025122 17 0 0.0 0.0 0.00 0.00 0.00 85 999.9
20210920024620 17 0 0.0 0.0 0.00 0.00 0.00 84 1000.0
20210920024120 17 0 0.0 0.0 0.00 0.00 0.00 84 1000.1
20210920023619 18 0 0.0 0.0 0.00 0.00 0.00 84 999.9
20210920023119 18 0 0.0 0.0 0.00 0.00 0.00 84 999.9
20210920022619 18 0 0.0 0.0 0.00 0.00 0.00 84 999.7
20210920022118 18 0 0.0 0.0 0.00 0.00 0.00 83 999.6
20210920021618 18 0 0.0 0.0 0.00 0.00 0.00 83 999.6
20210920021120 18 0 0.0 0.0 0.00 0.00 0.00 83 999.6
20210920020620 18 0 0.0 0.0 0.00 0.00 0.00 82 999.6
20210920020118 18 0 0.0 0.0 0.00 0.00 0.00 82 999.7
20210920015614 18 0 0.0 0.0 0.00 0.00 0.00 82 999.6
20210920015115 18 0 0.0 0.0 0.00 0.00 0.00 82 999.6
20210920014615 18 0 0.0 0.0 0.00 0.00 0.00 81 999.6
20210920014116 18 0 0.0 0.0 0.00 0.00 0.00 81 999.6
20210920013614 18 0 0.0 0.0 0.00 0.00 0.00 81 999.6
20210920013114 18 0 0.0 0.0 0.00 0.00 0.00 80 999.7
20210920012615 19 0 0.0 0.0 0.00 0.00 0.00 80 999.8
20210920012114 19 0 0.0 0.0 0.00 0.00 0.00 80 999.7
20210920011615 19 0 0.0 0.0 0.00 0.00 0.00 79 999.7
20210920011117 19 0 0.0 0.0 0.00 0.00 0.00 79 999.7
20210920010614 20 0 0.0 0.0 0.00 0.00 0.00 78 999.8
20210920010114 20 0 0.0 0.0 0.00 0.00 0.00 77 999.8
20210920005615 20 0 0.0 0.0 0.00 0.00 0.00 77 999.8
20210920005114 20 266 0.0 0.0 0.00 0.00 0.00 76 999.8
20210920004615 20 0 0.0 1.6 0.00 0.00 0.00 75 999.8
20210920004115 21 241 0.0 1.6 0.00 0.00 0.00 74 999.7
20210920003614 21 238 0.0 0.0 0.00 0.00 0.00 75 999.7
20210920003114 21 229 0.0 0.0 0.00 0.00 0.00 74 999.7
20210920002613 21 284 0.0 0.0 0.00 0.00 0.00 74 999.7
20210920002115 21 205 0.0 0.0 0.00 0.00 0.00 74 999.7
20210920001614 21 215 0.0 0.0 0.00 0.00 0.00 74 999.7
20210920001114 21 256 0.0 0.0 0.00 0.00 0.00 74 999.8
20210920000615 21 256 0.0 0.0 0.00 0.00 0.00 74 999.8
20210920000114 21 307 0.0 0.0 0.00 0.00 0.00 74 999.8
20210919235616 21 238 0.0 0.0 0.00 0.00 0.00 74 999.8
20210919235115 21 299 0.0 0.0 0.00 0.00 0.00 74 999.9
20210919234614 21 217 0.0 0.0 0.00 0.00 0.00 74 999.9
20210919234114 21 179 0.0 0.0 0.00 0.00 0.00 74 999.8
20210919233614 21 244 0.0 0.0 0.00 0.00 0.00 74 1000.0
20210919233112 21 220 0.0 0.0 0.00 0.00 0.00 74 1000.0
20210919232611 21 250 0.0 0.0 0.00 0.00 0.00 74 1000.0
20210919232112 21 238 0.0 0.0 0.00 0.00 0.00 74 999.9
20210919231612 21 288 0.0 0.0 0.00 0.00 0.00 74 1000.0
20210919231112 21 237 0.0 0.0 0.00 0.00 0.00 74 1000.0
20210919230613 21 254 0.0 0.0 0.00 0.00 0.00 73 1000.1
20210919230112 21 236 0.0 0.0 0.00 0.00 0.00 73 999.9
20210919225612 21 238 0.0 0.0 0.00 0.00 0.00 73 1000.0
20210919225111 21 189 0.0 0.0 0.00 0.00 0.00 73 1000.0
20210919224611 21 184 0.0 0.0 0.00 0.00 0.00 72 1000.0
20210919224110 22 123 0.0 0.0 0.00 0.00 0.00 71 1000.2
20210919223610 22 240 0.0 0.0 0.00 0.00 0.00 72 1000.3
20210919223110 22 227 0.0 1.6 0.00 0.00 0.00 73 1000.4
20210919222611 22 217 0.0 1.6 0.00 0.00 0.00 73 1000.4
20210919222110 22 217 0.0 0.0 0.00 0.00 0.00 72 1000.5
20210919221613 22 247 0.0 0.0 0.00 0.00 0.00 73 1000.4
20210919221110 22 246 0.0 0.0 0.00 0.00 0.00 72 1000.5
20210919220609 22 230 0.0 0.0 0.00 0.00 0.00 72 1000.5
20210919220109 22 255 0.0 0.0 0.00 0.00 0.00 72 1000.5
20210919215608 22 233 0.0 0.0 0.00 0.00 0.00 72 1000.6
20210919215108 22 180 0.0 0.0 0.00 0.00 0.00 72 1000.7
20210919214607 22 225 0.0 0.0 0.00 0.00 0.00 73 1000.7
20210919214108 22 117 0.0 0.0 0.00 0.00 0.00 72 1000.8
20210919213609 22 259 0.0 0.0 0.00 0.00 0.00 72 1000.8
20210919213109 22 246 0.0 1.6 0.00 0.00 0.00 73 1000.9
20210919212608 22 242 0.0 1.6 0.00 0.00 0.00 73 1000.9
20210919212107 22 233 0.0 0.0 0.00 0.00 0.00 73 1000.9
20210919211606 22 121 0.0 0.0 0.00 0.00 0.00 72 1001.0
20210919211105 22 281 0.0 0.0 0.00 0.00 0.00 73 1001.0
20210919210606 22 224 0.0 0.0 0.00 0.00 0.00 73 1001.1
20210919210108 22 246 0.0 0.0 0.00 0.00 0.00 73 1001.3
20210919205606 21 137 0.0 0.0 0.00 0.00 0.00 74 1001.5
20210919205105 21 104 0.0 0.0 0.00 0.00 0.00 75 1001.5
20210919204604 21 167 0.0 0.0 0.00 0.00 0.00 75 1001.6
20210919204104 21 196 0.0 0.0 0.00 0.00 0.00 74 1001.6
20210919203604 21 131 0.0 1.6 0.00 0.00 0.00 75 1001.6
20210919203104 21 170 0.0 1.6 0.00 0.00 0.00 74 1001.9
20210919202605 21 251 0.0 0.0 0.00 0.00 0.00 74 1001.9
20210919202104 21 188 0.0 1.6 0.00 0.00 0.00 74 1001.9
20210919201606 21 240 0.0 1.6 0.00 0.00 0.00 73 1002.1
20210919201103 21 251 0.0 1.6 0.00 0.00 0.00 73 1002.1
20210919200602 21 177 0.0 1.6 0.00 0.00 0.00 74 1002.2
20210919200102 21 161 0.0 1.6 0.00 0.00 0.00 74 1002.1
20210919195601 21 247 0.0 1.6 0.00 0.00 0.00 75 1002.2
20210919195103 21 154 0.0 1.6 0.00 0.00 0.00 75 1002.3
20210919194600 21 220 0.0 1.6 0.00 0.00 0.00 74 1002.4
20210919194058 21 283 0.0 1.6 0.00 0.00 0.00 75 1002.4
20210919193559 21 240 0.0 1.6 0.00 0.00 0.00 74 1002.4
20210919193059 21 249 0.0 1.6 0.00 0.00 0.00 74 1002.4
20210919192558 21 198 0.0 0.0 0.00 0.00 0.00 75 1002.4
20210919192058 21 207 0.0 0.0 0.00 0.00 0.00 75 1002.4
20210919191600 21 291 0.0 0.0 0.00 0.00 0.00 74 1002.5
20210919191058 21 271 0.0 0.0 0.00 0.00 0.00 74 1002.4
20210919190558 21 233 0.0 0.0 0.00 0.00 0.00 75 1002.4
20210919190058 21 189 0.0 0.0 0.00 0.00 0.00 76 1002.5
20210919185558 20 197 0.0 0.0 0.00 0.00 0.00 75 1002.5
20210919185058 20 302 0.0 0.0 0.00 0.00 0.00 76 1002.6
20210919184559 20 232 0.0 0.0 0.00 0.00 0.00 75 1002.6
20210919184059 20 142 0.0 0.0 0.00 0.00 0.00 76 1002.7
20210919183600 20 144 0.0 0.0 0.00 0.00 0.00 76 1002.9
20210919183057 20 144 0.0 0.0 0.00 0.00 0.00 76 1002.9
20210919182558 20 259 0.0 0.0 0.00 0.00 0.00 76 1003.0
20210919182059 20 294 0.0 0.0 0.00 0.00 0.00 77 1002.9
20210919181556 20 187 0.0 0.0 0.00 0.00 0.00 78 1003.0
20210919181056 20 151 0.0 0.0 0.00 0.00 0.00 78 1003.1
20210919180554 19 142 0.0 0.0 0.00 0.00 0.00 80 1003.2
20210919180056 19 239 0.0 0.0 0.00 0.00 0.00 80 1003.3
20210919175551 19 153 0.0 0.0 0.00 0.00 0.00 81 1003.3
20210919175052 18 243 0.0 0.0 0.00 0.00 0.00 81 1003.4
20210919174553 18 244 0.0 0.0 0.00 0.00 0.00 81 1003.4
20210919174053 18 250 0.0 0.0 0.00 0.00 0.00 81 1003.4
20210919173551 18 36 0.0 0.0 0.00 0.00 0.00 82 1003.4
20210919173051 18 42 0.0 0.0 0.00 0.00 0.00 83 1003.5
20210919172553 18 0 0.0 0.0 0.00 0.00 0.00 84 1003.5
20210919172053 17 41 0.0 0.0 0.00 0.00 0.00 84 1003.5
20210919171551 17 40 0.0 0.0 0.00 0.00 0.00 85 1003.6
20210919171053 17 42 0.0 0.0 0.00 0.00 0.00 85 1003.7
20210919170552 17 34 0.0 0.0 0.00 0.00 0.00 86 1003.8
20210919170052 17 30 0.0 0.0 0.00 0.00 0.00 87 1003.9
20210919165551 17 24 0.0 0.0 0.00 0.00 0.00 87 1003.9
20210919165053 17 109 0.0 0.0 0.00 0.00 0.00 88 1003.8
20210919164553 17 113 0.0 0.0 0.00 0.00 0.00 89 1003.8
20210919164051 16 113 0.0 0.0 0.00 0.00 0.00 90 1003.8
20210919163552 16 113 0.0 0.0 0.00 0.00 0.00 90 1003.8
20210919163052 16 113 0.0 0.0 0.00 0.00 0.00 91 1003.8
20210919162552 16 113 0.0 0.0 0.00 0.00 0.00 92 1003.8
20210919162051 16 113 0.0 0.0 0.00 0.00 0.00 92 1003.8
20210919161553 16 113 0.0 0.0 0.00 0.00 0.00 93 1003.8
20210919161052 16 113 0.0 0.0 0.00 0.00 0.00 93 1003.8
20210919160553 15 113 0.0 0.0 0.00 0.00 0.00 93 1003.7
20210919160051 15 114 0.0 0.0 0.00 0.00 0.00 93 1003.5
20210919155551 15 114 0.0 0.0 0.00 0.00 0.00 93 1003.5
20210919155052 15 114 0.0 0.0 0.00 0.00 0.00 93 1003.6
20210919154552 15 114 0.0 0.0 0.00 0.00 0.00 93 1003.5
20210919154053 15 78 0.0 0.0 0.00 0.00 0.00 94 1003.4
20210919153552 15 68 0.0 0.0 0.00 0.00 0.00 94 1003.4
20210919153053 15 68 0.0 0.0 0.00 0.00 0.00 95 1003.4
20210919152551 15 68 0.0 0.0 0.00 0.00 0.00 94 1003.3
20210919152052 14 68 0.0 0.0 0.00 0.00 0.00 95 1003.3
20210919151550 14 68 0.0 0.0 0.00 0.00 0.00 95 1003.2
20210919151049 14 71 0.0 0.0 0.00 0.00 0.00 95 1003.2
20210919150550 14 71 0.0 0.0 0.00 0.00 0.00 95 1003.1
20210919150051 13 71 0.0 0.0 0.00 0.00 0.00 96 1003.1
20210919145548 13 74 0.0 0.0 0.00 0.00 0.00 96 1003.1
20210919145047 13 0 0.0 0.0 0.00 0.00 0.00 95 1003.1
20210919144548 12 0 0.0 0.0 0.00 0.00 0.00 94 1003.1
20210919144048 12 0 0.0 0.0 0.00 0.00 0.00 94 1003.2
20210919143547 12 0 0.0 0.0 0.00 0.00 0.00 94 1003.2
20210919143046 12 72 0.0 0.0 0.00 0.00 0.00 94 1003.2
20210919142547 12 72 0.0 0.0 0.00 0.00 0.00 94 1003.1
20210919142045 12 71 0.0 0.0 0.00 0.00 0.00 93 1003.1
20210919141548 12 71 0.0 0.0 0.00 0.00 0.00 93 1003.2
20210919141046 12 71 0.0 0.0 0.00 0.00 0.00 93 1003.2
20210919140544 12 71 0.0 0.0 0.00 0.00 0.00 93 1003.0
20210919140044 11 71 0.0 0.0 0.00 0.00 0.00 93 1003.0
20210919135544 11 71 0.0 0.0 0.00 0.00 0.00 93 1003.0
20210919135046 11 71 0.0 0.0 0.00 0.00 0.00 93 1002.9
20210919134544 11 71 0.0 0.0 0.00 0.00 0.00 93 1002.9
20210919134043 11 71 0.0 0.0 0.00 0.00 0.00 93 1002.9
20210919133541 11 71 0.0 0.0 0.00 0.00 0.00 92 1003.0
20210919133042 11 71 0.0 1.6 0.00 0.00 0.00 92 1002.9
20210919132542 11 72 0.0 1.6 0.00 0.00 0.00 92 1002.9
20210919132043 11 66 0.0 0.0 0.00 0.00 0.00 92 1002.9
20210919131541 11 66 0.0 0.0 0.00 0.00 0.00 92 1002.9
20210919131039 11 66 0.0 0.0 0.00 0.00 0.00 92 1002.8
20210919130535 11 66 0.0 0.0 0.00 0.00 0.00 93 1002.7
20210919130036 11 66 0.0 0.0 0.00 0.00 0.00 92 1002.8
20210919125533 11 66 0.0 0.0 0.00 0.00 0.00 93 1002.7
20210919125033 11 66 0.0 0.0 0.00 0.00 0.00 93 1002.7
20210919124533 11 66 0.0 0.0 0.00 0.00 0.00 92 1002.6
20210919124034 11 66 0.0 0.0 0.00 0.00 0.00 92 1002.6
20210919123533 11 66 0.0 0.0 0.00 0.00 0.00 92 1002.6
20210919123033 11 66 0.0 0.0 0.00 0.00 0.00 92 1002.5
20210919122535 11 66 0.0 0.0 0.00 0.00 0.00 92 1002.4
20210919122035 11 66 0.0 0.0 0.00 0.00 0.00 92 1002.4
20210919121533 11 66 0.0 0.0 0.00 0.00 0.00 92 1002.4
20210919121032 11 66 0.0 0.0 0.00 0.00 0.00 92 1002.3
20210919120533 11 66 0.0 0.0 0.00 0.00 0.00 92 1002.2
20210919120032 11 66 0.0 0.0 0.00 0.00 0.00 92 1002.3
20210919115533 11 66 0.0 0.0 0.00 0.00 0.00 92 1002.2
20210919115031 12 66 0.0 0.0 0.00 0.00 0.00 92 1002.2
20210919114531 12 66 0.0 0.0 0.00 0.00 0.00 92 1002.1
20210919114031 12 66 0.0 0.0 0.00 0.00 0.00 92 1002.1
20210919113531 12 66 0.0 0.0 0.00 0.00 0.00 92 1002.1
20210919113032 12 66 0.0 0.0 0.00 0.00 0.00 92 1002.1
20210919112531 12 66 0.0 0.0 0.00 0.00 0.00 92 1002.1
20210919112028 12 66 0.0 0.0 0.00 0.00 0.00 92 1002.2
20210919111530 12 66 0.0 0.0 0.00 0.00 0.00 92 1002.2
20210919111029 12 66 0.0 0.0 0.00 0.00 0.00 92 1002.2
20210919110529 12 66 0.0 0.0 0.00 0.00 0.00 92 1002.2
20210919110030 12 66 0.0 0.0 0.00 0.00 0.00 92 1002.2
20210919105529 12 66 0.0 0.0 0.00 0.00 0.00 92 1002.3
20210919105029 12 66 0.0 0.0 0.00 0.00 0.00 92 1002.2
20210919104529 12 66 0.0 0.0 0.00 0.00 0.00 91 1002.3
20210919104029 12 66 0.0 0.0 0.00 0.00 0.00 91 1002.3
20210919103527 12 66 0.0 0.0 0.00 0.00 0.00 91 1002.4
20210919103027 12 65 0.0 0.0 0.00 0.00 0.00 92 1002.4
20210919102531 12 46 0.0 0.0 0.00 0.00 0.00 91 1002.4
20210919102027 12 24 0.0 0.0 0.00 0.00 0.00 91 1002.5
20210919101526 12 24 0.0 0.0 0.00 0.00 0.00 91 1002.5
20210919101027 12 24 0.0 0.0 0.00 0.00 0.00 91 1002.6
20210919100527 12 24 0.0 0.0 0.00 0.00 0.00 91 1002.5
20210919100027 12 24 0.0 0.0 0.00 0.00 0.00 91 1002.6
20210919095526 12 24 0.0 0.0 0.00 0.00 0.00 91 1002.6
20210919095028 12 24 0.0 0.0 0.00 0.00 0.00 91 1002.7
20210919094524 12 24 0.0 0.0 0.00 0.00 0.00 91 1002.7
20210919094025 12 24 0.0 0.0 0.00 0.00 0.00 91 1002.8
20210919093523 12 24 0.0 0.0 0.00 0.00 0.00 91 1002.7
20210919093023 12 24 0.0 0.0 0.00 0.00 0.00 91 1002.7
20210919092523 12 24 0.0 0.0 0.00 0.00 0.00 91 1002.8
20210919092023 12 24 0.0 0.0 0.00 0.00 0.00 91 1002.8
20210919091523 12 24 0.0 0.0 0.00 0.00 0.00 91 1002.9
20210919091027 12 290 0.0 0.0 0.00 0.00 0.00 91 1002.9
20210919090522 12 290 0.0 0.0 0.00 0.00 0.00 91 1003.0
20210919090022 12 290 0.0 0.0 0.00 0.00 0.00 91 1003.0
20210919085519 12 290 0.0 0.0 0.00 0.00 0.00 91 1003.1
20210919085018 12 290 0.0 0.0 0.00 0.00 0.00 90 1003.1
20210919084521 12 290 0.0 0.0 0.00 0.00 0.00 90 1003.1
20210919084020 12 290 0.0 0.0 0.00 0.00 0.00 90 1003.0
20210919083519 12 290 0.0 0.0 0.00 0.00 0.00 90 1003.2
20210919083019 12 290 0.0 0.0 0.00 0.00 0.00 90 1003.2
20210919082520 12 290 0.0 0.0 0.00 0.00 0.00 89 1003.1
20210919082019 12 290 0.0 0.0 0.00 0.00 0.00 89 1003.1
20210919081519 13 290 0.0 0.0 0.00 0.00 0.00 90 1003.1
20210919081020 13 290 0.0 0.0 0.00 0.00 0.00 90 1003.2
20210919080517 13 290 0.0 0.0 0.00 0.00 0.00 90 1003.2
20210919080017 13 290 0.0 0.0 0.00 0.00 0.00 89 1003.3
20210919075518 13 290 0.0 0.0 0.00 0.00 0.00 89 1003.3
20210919075016 13 290 0.0 0.0 0.00 0.00 0.00 89 1003.3
20210919074516 13 290 0.0 0.0 0.00 0.00 0.00 89 1003.5
20210919074020 13 290 0.0 0.0 0.00 0.00 0.00 89 1003.5
20210919073516 13 290 0.0 0.0 0.00 0.00 0.00 89 1003.6
20210919073016 13 291 0.0 0.0 0.00 0.00 0.00 89 1003.5
20210919072514 13 290 0.0 0.0 0.00 0.00 0.00 89 1003.6
20210919072012 13 290 0.0 0.0 0.00 0.00 0.00 89 1003.4
20210919071514 13 290 0.0 0.0 0.00 0.00 0.00 89 1003.5
20210919071013 13 290 0.0 0.0 0.00 0.00 0.00 89 1003.5
20210919070513 13 290 0.0 0.0 0.00 0.00 0.00 89 1003.5
20210919070012 13 290 0.0 0.0 0.00 0.00 0.00 89 1003.5
20210919065511 13 290 0.0 0.0 0.00 0.00 0.00 89 1003.5
20210919065011 13 290 0.0 0.0 0.00 0.00 0.00 89 1003.4
20210919064509 13 290 0.0 0.0 0.00 0.00 0.00 89 1003.4
20210919064009 13 290 0.0 0.0 0.00 0.00 0.00 89 1003.4
20210919063509 13 290 0.0 0.0 0.00 0.00 0.00 89 1003.5
20210919063010 13 290 0.0 0.0 0.00 0.00 0.00 88 1003.5
20210919062509 13 290 0.0 0.0 0.00 0.00 0.00 88 1003.5
20210919062010 13 290 0.0 0.0 0.00 0.00 0.00 88 1003.6
20210919061510 13 290 0.0 0.0 0.00 0.00 0.00 89 1003.5
20210919061009 14 290 0.0 0.0 0.00 0.00 0.00 89 1003.6
20210919060508 14 290 0.0 0.0 0.00 0.00 0.00 89 1003.7
20210919060009 14 290 0.0 0.0 0.00 0.00 0.00 88 1003.6
20210919055510 14 290 0.0 0.0 0.00 0.00 0.00 88 1003.6
20210919055011 14 290 0.0 0.0 0.00 0.00 0.00 87 1003.5
20210919054509 14 290 0.0 0.0 0.00 0.00 0.00 87 1003.6
20210919054010 15 290 0.0 0.0 0.00 0.00 0.00 87 1003.6
20210919053509 15 290 0.0 0.0 0.00 0.00 0.00 87 1003.6
20210919053010 15 290 0.0 0.0 0.00 0.00 0.00 87 1003.7
20210919052510 15 290 0.0 0.0 0.00 0.00 0.00 87 1003.7
20210919052009 15 290 0.0 0.0 0.00 0.00 0.00 87 1003.7